Location: ShareBrained
(45.5589°N, 122.6491°W)
Time: 13:36:40
(UTC-08:00)

NOAA 19 - Pass Details

Date: 24 January 2020
Orbit: 840 x 862 km, 99.2° (Epoch: 24 February)

Event Time Altitude Azimuth Distance (km) Brightness Sun altitude
Rises 17:56:47 0° 194° (SSW) 3,409 8.8 -9.2°
Reaches altitude 10° 17:59:27 10° 205° (SSW) 2,475 8.3 -9.6°
Maximum altitude 18:04:11 29° 265° (W) 1,503 7.4 -10.4°
Drops below altitude 10° 18:08:56 10° 325° (NW) 2,478 7.9 -11.2°
Sets 18:11:38 0° 336° (NNW) 3,415 8.5 -11.6°
